Regional Weather Roundup
Issued by NWS

Home | Current Version | Previous Version | Text Only | Print | Product List | Glossary Off
Versions: 1 2 3 4 5 6 7 8 9 10 11 12 13 14 15 16 17 18 19 20 21 22 23 24 25 26 27 28 29 30 31 32 33 34 35 36 37 38 39 40 41 42 43 44 45 46 47 48 49 50

000
ASUS43 KIND 220709
RWRIN

WEATHER ROUNDUP FOR INDIANA
NATIONAL WEATHER SERVICE INDIANAPOLIS IN
300 AM EDT FRI SEP 22 2017

NOTE: "FAIR" INDICATES FEW OR NO CLOUDS BELOW 12,000 FEET WITH NO
SIGNIFICANT WEATHER AND/OR OBSTRUCTIONS TO VISIBILITY.

* - STATION DOES NOT REPORT WEATHER SUCH AS PRECIPITATION OR FOG.

+ - STATION NOT QUALITY CONTROLLED BY THE NATIONAL WEATHER SERVICE.
    USE DATA WITH CAUTION...ESPECIALLY DEWPOINT AND RELATIVE
    HUMIDITY OBSERVATIONS.

INZ001>003-010>013-019-020-220800-
NORTHWEST INDIANA

CITY           SKY/WX    TMP DP  RH WIND       PRES   REMARKS
GARY /AIRPORT/ PTCLDY    75  69  81 SE5       30.05S
KNOX *+        CLEAR     68  66  94 CALM      30.06S
LA PORTE +     CLEAR     69  68  96 SW3       30.08S
MICHIGAN CITY+ CLEAR     70  70 100 CALM      30.07R
MONTICELLO +   CLEAR     69  68  95 CALM      30.06S
RENSSELAER +   CLEAR     70  63  78 CALM      30.07R
VALPARAISO     CLEAR     71  69  93 CALM      30.07R

$$

LMZ046-743>745-220800-
SOUTHERN LAKE MICHIGAN

STATION/POSITION TIME  TEMP    WIND        PRES    WAVE
                       AIR SEA DIR/SP/G            HT
                 (UTC) (F)     (DEG/KT/KT) (MB)    (FT)
BURNS HARBOR     0640   81     160/  6/ 11 1017.9R
MICHIGAN CITY    0640   77     130/  8/ 10   N/A
5NW MICH CITY    0700   74 70  150/  6/  8   N/A     0

$$

INZ004-005-014>016-021>024-220800-
NORTH CENTRAL INDIANA

CITY           SKY/WX    TMP DP  RH WIND       PRES   REMARKS
GOSHEN         CLEAR     72  67  84 CALM      30.08R
LOGANSPORT +   CLEAR     68  66  94 CALM      30.08S
PERU/GRISSOM   CLEAR     70  67  90 CALM      30.07R
ROCHESTER +    CLEAR     72  70  94 CALM      30.07S
SOUTH BEND     CLEAR     73  71  93 E5        30.07S
WARSAW +       CLEAR     68  68 100 CALM      30.08S

$$

INZ006>009-017-018-025>027-220800-
NORTHEAST INDIANA

CITY           SKY/WX    TMP DP  RH WIND       PRES   REMARKS
AUBURN +       FOG       68  66  94 CALM      30.09S VSB 3/4
FORT WAYNE     PTCLDY    68  65  90 CALM      30.09R
HUNTINGTON +     N/A     69  68  95 CALM      30.08R FOG
KENDALLVILLE + CLEAR     69  68  97 CALM      30.09S

$$

INZ028-029-035-036-043>045-051>053-220800-
WEST CENTRAL INDIANA

CITY           SKY/WX    TMP DP  RH WIND       PRES   REMARKS
CRAWFORDSVL +  PTCLDY    66  66 100 SE3       30.08R
GREENCASTLE +  PTCLDY    68  66  94 CALM      30.09R
LAFAYETTE      CLEAR     69  68  96 CALM      30.06R
TERRE HAUTE    MOCLDY    70  67  90 CALM      30.06S

$$

INZ030>032-037>040-046>048-054>057-064-065-220800-
CENTRAL INDIANA

CITY           SKY/WX    TMP DP  RH WIND       PRES   REMARKS
CP ATTERBURY + CLEAR     66  64  94 CALM      30.09R FOG
FISHERS *+     CLEAR     68  68 100 CALM      30.08S
FRANKFORT +    CLOUDY    69  67  94 CALM      30.09S
GREENWOOD *+   CLEAR     73  72  96 CALM      30.08S
INDIANAPOLIS   PTCLDY    74  68  81 CALM      30.07S
-EAGLE CREEK   CLEAR     72  70  93 CALM      30.07S
KOKOMO +       CLEAR     69  67  93 CALM      30.09R
MARION +       CLEAR     68  66  94 CALM      30.09S
MT COMFORT *+  CLEAR     68  66  94 S3        30.09S
SHELBYVILLE    CLEAR     68  64  87 CALM      30.07S
ZIONSVILLE +   CLEAR     66  66  99 CALM      30.09S

$$

INZ033-034-041-042-049-050-058-059-220800-
EAST CENTRAL INDIANA

CITY           SKY/WX    TMP DP  RH WIND       PRES   REMARKS
MUNCIE         CLEAR     69  66  90 CALM      30.09R
RICHMOND +     CLEAR     68  68 100 E3        30.12R FOG

$$

INZ060-061-067>069-081>083-085>088-220800-
SOUTHWEST INDIANA

CITY           SKY/WX    TMP DP  RH WIND       PRES   REMARKS
EVANSVILLE     CLEAR     72  70  93 CALM      30.06R
HUNTINGBURG +  CLEAR     70  70 100 CALM      30.07R
WASHINGTON +   CLEAR     69  67  94 CALM      30.06R

$$

INZ062-063-066-070>080-084-089>092-220800-
SOUTH CENTRAL AND SOUTHEAST INDIANA

CITY           SKY/WX    TMP DP  RH WIND       PRES   REMARKS
BEDFORD +      CLEAR     70  68  94 CALM      30.07S FOG
BLOOMINGTON    CLEAR     68  64  87 CALM      30.08R
MADISON *+     CLEAR     70  68  94 CALM      30.10S
NORTH VERNON + CLEAR     66  66 100 CALM      30.09S FOG
SEYMOUR +      PTCLDY    68  66  94 CALM      30.08R

$$




USA.gov is the U.S. government's official web portal to all federal, state and local government web resources and services.